Terminal Aerodrome Forecast
Issued by NWS Billings, MT

Home | Current Version | Previous Version | Graphics & Text | Print | Product List | Glossary On
Versions: 1 2 3 4 5 6 7 8 9 10 11 12 13 14 15 16 17 18 19 20 21 22 23 24 25 26 27
000
FTUS45 KBYZ 171139
TAFMLS
TAF
KMLS 171139Z 1712/1812 11004KT P6SM OVC011
     FM171400 12006KT P6SM BKN005 OVC010
     FM172000 13004KT P6SM OVC015
     FM180000 13005KT P6SM OVC020=

USA.gov is the U.S. government's official web portal to all federal, state and local government web resources and services.